This demonstration page uses our WeatherBlox Daily Observations layout. Learn more.

Left ArrowRight Arrow

31.84235, -102.49876

Hourly Observations for November 28, 2022

Temp ( °F °C ) Dew Point ( °F °C ) Humidity (%) Winds ( mph kmh ) Pressure ( in mb ) Visibility ( mi km ) Precip ( " mm )
12:53 am 00:53 Clear 41 5 35 1.7 79 79 S 7 11 29.94 1014 10 16 0.00 0.00
1:53 am 01:53 Clear 41 5 34 1.1 76 76 S 6 9 29.92 1013 10 16 0.00 0.00
2:53 am 02:53 Clear 40 4.4 33 0.6 76 76 SSW 5 7 29.91 1013 10 16 0.00 0.00
3:53 am 03:53 Clear 39 3.9 32 0 76 76 SSW 8 13 29.89 1012 10 16 0.00 0.00
4:53 am 04:53 Clear 39 3.9 31 -0.6 72 72 SW 7 11 29.88 1012 10 16 0.00 0.00
5:53 am 05:53 Clear 39 3.9 30 -1.1 70 70 SW 5 7 29.88 1012 10 16 0.00 0.00
6:53 am 06:53 Clear 37 2.8 29 -1.7 72 72 SSW 8 13 29.90 1013 10 16 0.00 0.00
7:53 am 07:53 Sunny 38 3.3 30 -1.1 73 73 SW 7 11 29.92 1013 10 16 0.00 0.00
8:16 am 08:16 Mostly Sunny 39 3.9 31 -0.6 72 72 SW 8 13 30.01 1016 10 16 0.00 0.00
8:53 am 08:53 Sunny 44 6.7 32 0 62 62 SSW 9 15 29.92 1013 10 16 0.00 0.00
9:53 am 09:53 Sunny 53 11.7 30 -1.1 41 41 SW 12 19 29.89 1012 10 16 0.00 0.00
10:53 am 10:53 Sunny 61 16.1 27 -2.8 27 27 WSW 18 30 29.88 1012 10 16 0.00 0.00
11:53 am 11:53 Sunny 64 17.8 30 -1.1 28 28 SW 16 26 29.86 1011 10 16 0.00 0.00
12:53 pm 12:53 Sunny 67 19.4 25 -3.9 20 20 WSW 21 33 29.80 1009 10 16 0.00 0.00
1:53 pm 13:53 Sunny 69 20.6 24 -4.4 18 18 WSW 20 31 29.76 1008 10 16 0.00 0.00
2:53 pm 14:53 Sunny 70 21.1 24 -4.4 18 18 SW 18 30 29.73 1007 10 16 0.00 0.00
3:53 pm 15:53 Sunny 70 21.1 27 -2.8 20 20 SSW 15 24 29.71 1006 10 16 0.00 0.00
4:53 pm 16:53 Sunny 68 20 28 -2.2 22 22 SW 14 22 29.70 1006 10 16 0.00 0.00
5:53 pm 17:53 Clear 61 16.1 33 0.6 35 35 SSW 7 11 29.72 1006 10 16 0.00 0.00
6:53 pm 18:53 Clear 57 13.9 36 2.2 45 45 S 10 17 29.72 1007 10 16 0.00 0.00
7:53 pm 19:53 Clear 57 13.9 37 2.8 47 47 S 9 15 29.72 1006 10 16 0.00 0.00
8:53 pm 20:53 Clear 53 11.7 37 2.8 54 54 SW 9 15 29.72 1007 10 16 0.00 0.00
9:53 pm 21:53 Clear 52 11.1 37 2.8 57 57 SSW 14 22 29.70 1006 10 16 0.00 0.00
10:53 pm 22:53 Clear 53 11.7 36 2.2 52 52 SSW 15 24 29.70 1006 10 16 0.00 0.00
11:53 pm 23:53 Clear 51 10.6 37 2.8 58 58 SSW 14 22 29.68 1005 10 16 0.00 0.00

Powered by AerisWeather